Find Starlink 5276

NORAD ID: 55399 Int'l Des: 2023-014 Owner: SPXS Country: US Constellation: starlink operational
LEOCIRCULAR

当前视图

正在加载3D地球...

About Starlink 5276

Starlink 5276 (NORAD 55399) is a starlink constellation satellite (v1.5) launched Jan 31, 2023 by SPXS of US. It operates in LEO, CIRCULAR orbit with a mass of 305.00 kg.

关于 Starlink 5276

正在加载描述...

即将过境

Passes for default location (London). Set your location on the main map for personalized predictions.

高度历史

Loading altitude history...

两行轨道根数

1 55399U 23014J 26166.46665993 -.00000078 00000-0 13001-5 0 9996
2 55399 69.9992 177.8348 0003735 269.6052 90.4679 14.98329651186708
Epoch: Jun 15, 2026 • Age: 5 hours

当前状态

高度 579.3 km
速度 7.57 km/s
星下点 -23.46°S, 25.92°E
发射日期 Jan 31, 2023
运行时间 3.3 years
类型 internet

技术详情

分类 Payload
质量 305.00 kg
干质量 290.00 kg
总质量 305.00 kg
长度 0.20 m
直径 2.80 m
跨度 9.00 m
形状 Box + pan
制造商 SPXS
平台类型 Starlink
阶段状态 In Orbit
所有者/国家 SPXS/US

Most Searched